Home   Weather   Wilhelmshaven   Past weeks

Flag for Germany Past Weather in Wilhelmshaven, Lower Saxony, Germany — Yesterday and Last 2 Weeks

Now
34 °F

Drizzle. Fog.


Feels Like: 31 °F
Forecast: 30 / 36 °F
Wind: 3 mph from Southwest

Location: Wittmundhaven

Current Time: Jan 20, 2017 at 1:14:57 pm

Latest Report: Jan 20, 2017 at 12:20 pm


Visibility: 2 mi

Pressure: 30.60 "Hg

Humidity: 93%

Dew Point: 32 °F

Location of WilhelmshavenLocation

Past Weather in Wilhelmshaven — Graph

°F

Wilhelmshaven Temperature Yesterday

Maximum temperature yesterday: 34 °F (at 1:20 pm)
Minimum temperature yesterday: 27 °F (at 1:20 am)
Average temperature yesterday: 30 °F

High & Low Weather Summary for the Past Weeks

 TemperatureHumidityPressure
High46 °F (Jan 11, 1:20 pm)100% (Jan 7, 5:20 am)30.74 "Hg (Jan 7, 5:20 am)
Low18 °F (Jan 6, 4:20 am)59% (Jan 5, 3:20 pm)29.12 "Hg (Jan 13, 2:20 am)
Average33 °F88%30.11 "Hg
* Reported Jan 5 11:20 am — Jan 20 11:45 am, Wilhelmshaven, Weather by CustomWeather, © 2017

Note: Actual official high and low records may vary slightly from our data, if they occured in-between our weather recording intervals... More about our weather records

Advertising

Wilhelmshaven Weather History for the Previous 24 Hours

Scroll right to see more
 ConditionsComfort  
Time TempWeatherWind HumidityBarometerVisibility
11:45 am
Fri, Jan 20
34 °FDrizzle. Fog.3 mph87%30.60 "Hg2 mi
11:20 am34 °FDrizzle. Fog.2 mph93%30.60 "Hg3 mi
10:20 am34 °FPartly sunny.2 mph87%30.60 "Hg4 mi
9:20 am34 °FPartly sunny.3 mph87%30.60 "HgN/A
8:20 am34 °FPassing clouds.3 mph87%30.60 "HgN/A
7:20 am34 °FPassing clouds.2 mph81%30.60 "HgN/A
6:20 am32 °FPassing clouds.2 mph87%30.60 "HgN/A
5:20 am32 °FPassing clouds.2 mph80%30.60 "HgN/A
4:20 am32 °FPassing clouds.2 mph87%30.60 "HgN/A
3:20 am30 °FPassing clouds.2 mph80%30.63 "HgN/A
2:20 am28 °FPassing clouds.3 mph86%30.63 "HgN/A
1:20 am28 °FPassing clouds.3 mph86%30.63 "HgN/A
12:20 am28 °FPassing clouds.3 mph86%30.63 "HgN/A
11:20 pm
Thu, Jan 19
28 °FPassing clouds.6 mph93%30.66 "HgN/A
10:20 pm28 °FPassing clouds.5 mph86%30.63 "HgN/A
9:20 pm28 °FPassing clouds.6 mph93%30.63 "HgN/A
8:20 pm28 °FChilly.5 mph86%30.63 "HgN/A
7:20 pm28 °FChilly.5 mph93%30.63 "HgN/A
6:20 pm30 °FPassing clouds.6 mph86%30.63 "HgN/A
5:20 pm32 °FPassing clouds.2 mph75%30.63 "HgN/A
4:20 pm34 °FScattered clouds.3 mph75%30.63 "HgN/A
3:20 pm34 °FPartly sunny.5 mph75%30.63 "HgN/A
2:20 pm34 °FPartly sunny.5 mph75%30.63 "HgN/A
1:20 pm34 °FPartly sunny.5 mph75%30.66 "HgN/A
Weather by CustomWeather, © 2017

See weather overviewHow to use our weather pages